Meteo pe oră la Czyprki

Astăzi, 22 Aprilie, Joi

Timp Temperatura Precipitaţii Vânt Presiune Umiditate
00:00 +5°C° 0.1 mm 3 m/s 743 mmHg 83%
01:00 +5°C° 0 mm 3 m/s 743 mmHg 85%
02:00 +4°C° 0.2 mm 3 m/s 743 mmHg 86%
03:00 +4°C° 0.2 mm 3 m/s 743 mmHg 87%
04:00 +3°C° 0.2 mm 3 m/s 743 mmHg 89%
05:00 +4°C° 0.1 mm 3 m/s 744 mmHg 85%
06:00 +4°C° 0.1 mm 4 m/s 744 mmHg 80%
07:00 +3°C° 0 mm 5 m/s 744 mmHg 75%
08:00 +5°C° 0.1 mm 5 m/s 744 mmHg 68%
09:00 +5°C° 0.1 mm 6 m/s 744 mmHg 61%
10:00 +7°C° 0.1 mm 6 m/s 744 mmHg 55%
11:00 +6°C° 0.3 mm 7 m/s 744 mmHg 55%
12:00 +6°C° 0.3 mm 7 m/s 744 mmHg 56%
13:00 +6°C° 0 mm 8 m/s 744 mmHg 56%
14:00 +6°C° 0.3 mm 7 m/s 745 mmHg 58%
15:00 +5°C° 0.3 mm 7 m/s 745 mmHg 60%
16:00 +5°C° 0.3 mm 6 m/s 745 mmHg 62%
17:00 +3°C° 0 mm 6 m/s 745 mmHg 65%
18:00 +2°C° 0 mm 5 m/s 745 mmHg 67%
19:00 +1°C° 0 mm 4 m/s 746 mmHg 69%
20:00 +1°C° 0 mm 5 m/s 746 mmHg 75%
21:00 0°C° 0 mm 5 m/s 746 mmHg 80%
22:00 -1°C° 0 mm 6 m/s 746 mmHg 86%
23:00 0°C° 0.1 mm 5 m/s 746 mmHg 86%

Mâine, 23 Aprilie, Vineri

Timp Temperatura Precipitaţii Vânt Presiune Umiditate
00:00 0°C° 0.1 mm 5 m/s 746 mmHg 86%
01:00 0°C° 0.1 mm 5 m/s 746 mmHg 86%
02:00 -1°C° 0.1 mm 6 m/s 746 mmHg 89%
03:00 -1°C° 0.1 mm 6 m/s 746 mmHg 91%
04:00 -1°C° 0.1 mm 6 m/s 746 mmHg 94%
05:00 -1°C° 0.1 mm 6 m/s 747 mmHg 90%
06:00 -1°C° 0.1 mm 6 m/s 747 mmHg 86%
07:00 +1°C° 0.1 mm 6 m/s 747 mmHg 83%
08:00 +2°C° 0.2 mm 6 m/s 748 mmHg 75%
09:00 +3°C° 0.2 mm 7 m/s 748 mmHg 67%
10:00 +4°C° 0.2 mm 7 m/s 748 mmHg 59%
11:00 +4°C° 0.2 mm 8 m/s 748 mmHg 56%
12:00 +4°C° 0.2 mm 8 m/s 749 mmHg 53%
13:00 +4°C° 0.2 mm 8 m/s 749 mmHg 50%
14:00 +4°C° 0.1 mm 8 m/s 749 mmHg 51%
15:00 +4°C° 0.1 mm 7 m/s 749 mmHg 51%
16:00 +3°C° 0.1 mm 7 m/s 750 mmHg 52%
17:00 +2°C° 0 mm 6 m/s 750 mmHg 56%
18:00 +1°C° 0 mm 5 m/s 750 mmHg 61%
19:00 0°C° 0 mm 4 m/s 750 mmHg 65%
20:00 -1°C° 0 mm 4 m/s 750 mmHg 69%
21:00 -1°C° 0 mm 3 m/s 750 mmHg 73%
22:00 -1°C° 0 mm 3 m/s 750 mmHg 77%
23:00 -2°C° 0 mm 3 m/s 751 mmHg 78%

Poimâine, 24 Aprilie, Sâmbătă

Timp Temperatura Precipitaţii Vânt Presiune Umiditate
00:00 -2°C° 0 mm 3 m/s 751 mmHg 79%
01:00 -2°C° 0 mm 3 m/s 751 mmHg 79%
02:00 -2°C° 0 mm 3 m/s 751 mmHg 80%
03:00 -2°C° 0 mm 3 m/s 751 mmHg 81%
04:00 -2°C° 0 mm 3 m/s 751 mmHg 82%
05:00 -1°C° 0 mm 3 m/s 751 mmHg 72%
06:00 0°C° 0 mm 4 m/s 751 mmHg 63%
07:00 +3°C° 0 mm 4 m/s 751 mmHg 54%
08:00 +3°C° 0 mm 5 m/s 751 mmHg 48%
09:00 +4°C° 0 mm 6 m/s 751 mmHg 42%
10:00 +5°C° 0 mm 7 m/s 751 mmHg 37%
11:00 +5°C° 0.1 mm 7 m/s 751 mmHg 39%
12:00 +5°C° 0.1 mm 7 m/s 751 mmHg 42%
13:00 +5°C° 0.1 mm 7 m/s 751 mmHg 45%
14:00 +5°C° 0 mm 7 m/s 751 mmHg 46%
15:00 +4°C° 0 mm 6 m/s 750 mmHg 47%
16:00 +4°C° 0 mm 6 m/s 750 mmHg 47%
17:00 +2°C° 0 mm 5 m/s 751 mmHg 53%
18:00 +1°C° 0 mm 4 m/s 751 mmHg 59%
19:00 0°C° 0 mm 3 m/s 751 mmHg 65%
20:00 -1°C° 0 mm 3 m/s 751 mmHg 70%
21:00 -2°C° 0 mm 3 m/s 751 mmHg 75%
22:00 -4°C° 0 mm 3 m/s 751 mmHg 80%
23:00 -4°C° 0 mm 3 m/s 751 mmHg 80%

25 Aprilie, Duminică

Timp Temperatura Precipitaţii Vânt Presiune Umiditate
00:00 -4°C° 0 mm 3 m/s 751 mmHg 80%
01:00 -4°C° 0 mm 3 m/s 751 mmHg 80%
02:00 -4°C° 0 mm 3 m/s 751 mmHg 80%
03:00 -3°C° 0 mm 2 m/s 751 mmHg 79%
04:00 -3°C° 0 mm 2 m/s 751 mmHg 78%
05:00 -1°C° 0 mm 3 m/s 751 mmHg 70%
06:00 +1°C° 0 mm 3 m/s 751 mmHg 61%
07:00 +1°C° 0 mm 4 m/s 750 mmHg 53%
08:00 +3°C° 0.1 mm 4 m/s 750 mmHg 49%
09:00 +3°C° 0.1 mm 5 m/s 750 mmHg 46%
10:00 +4°C° 0.1 mm 6 m/s 750 mmHg 42%
11:00 +4°C° 0.2 mm 6 m/s 750 mmHg 45%
12:00 +4°C° 0.2 mm 6 m/s 750 mmHg 49%
13:00 +4°C° 0.2 mm 7 m/s 750 mmHg 53%
14:00 +4°C° 0.2 mm 7 m/s 750 mmHg 52%
15:00 +3°C° 0.2 mm 7 m/s 750 mmHg 52%
16:00 +3°C° 0.2 mm 7 m/s 750 mmHg 51%
17:00 +2°C° 0 mm 6 m/s 750 mmHg 58%
18:00 0°C° 0 mm 4 m/s 750 mmHg 64%
19:00 -1°C° 0 mm 3 m/s 750 mmHg 71%
20:00 -1°C° 0 mm 3 m/s 750 mmHg 75%
21:00 -2°C° 0 mm 3 m/s 750 mmHg 80%
22:00 -4°C° 0 mm 3 m/s 750 mmHg 85%
23:00 -4°C° 0 mm 3 m/s 750 mmHg 84%

26 Aprilie, Luni

Timp Temperatura Precipitaţii Vânt Presiune Umiditate
00:00 -4°C° 0 mm 3 m/s 749 mmHg 83%
01:00 -3°C° 0 mm 2 m/s 749 mmHg 82%
02:00 -3°C° 0 mm 2 m/s 749 mmHg 81%
03:00 -4°C° 0 mm 3 m/s 749 mmHg 80%
04:00 -4°C° 0 mm 3 m/s 749 mmHg 78%
05:00 -2°C° 0 mm 3 m/s 749 mmHg 71%
06:00 0°C° 0 mm 3 m/s 749 mmHg 63%
07:00 +2°C° 0 mm 3 m/s 748 mmHg 56%
08:00 +3°C° 0 mm 3 m/s 748 mmHg 51%
09:00 +5°C° 0 mm 4 m/s 748 mmHg 47%
10:00 +6°C° 0 mm 4 m/s 748 mmHg 42%
11:00 +6°C° 0.1 mm 4 m/s 747 mmHg 44%
12:00 +6°C° 0.1 mm 4 m/s 747 mmHg 46%
13:00 +6°C° 0.1 mm 4 m/s 747 mmHg 47%
14:00 +6°C° 0.2 mm 4 m/s 747 mmHg 49%
15:00 +6°C° 0.2 mm 4 m/s 747 mmHg 51%
16:00 +5°C° 0.2 mm 4 m/s 747 mmHg 52%
17:00 +4°C° 0 mm 3 m/s 747 mmHg 60%
18:00 +2°C° 0 mm 3 m/s 747 mmHg 67%
19:00 +1°C° 0 mm 2 m/s 747 mmHg 75%
20:00 +1°C° 0 mm 2 m/s 747 mmHg 78%
21:00 -1°C° 0 mm 2 m/s 747 mmHg 82%
22:00 -2°C° 0 mm 2 m/s 747 mmHg 85%
23:00 -2°C° 0 mm 2 m/s 747 mmHg 88%

27 Aprilie, Marţi

Timp Temperatura Precipitaţii Vânt Presiune Umiditate
00:00 -3°C° 0 mm 2 m/s 747 mmHg 91%
01:00 -3°C° 0 mm 2 m/s 747 mmHg 93%
02:00 -3°C° 0 mm 2 m/s 747 mmHg 94%
03:00 -3°C° 0 mm 2 m/s 747 mmHg 94%
04:00 -3°C° 0 mm 2 m/s 747 mmHg 95%
05:00 -1°C° 0 mm 2 m/s 747 mmHg 87%
06:00 +2°C° 0 mm 2 m/s 747 mmHg 80%
07:00 +2°C° 0 mm 3 m/s 747 mmHg 72%
08:00 +4°C° 0 mm 2 m/s 747 mmHg 68%
09:00 +6°C° 0 mm 2 m/s 747 mmHg 64%
10:00 +7°C° 0 mm 2 m/s 747 mmHg 59%
11:00 +7°C° 0 mm 2 m/s 747 mmHg 59%
12:00 +7°C° 0 mm 2 m/s 747 mmHg 60%
13:00 +7°C° 0 mm 2 m/s 747 mmHg 60%
14:00 +8°C° 0 mm 1 m/s 746 mmHg 60%
15:00 +8°C° 0 mm 1 m/s 746 mmHg 60%
16:00 +9°C° 0 mm 1 m/s 746 mmHg 60%
17:00 +8°C° 0 mm 1 m/s 746 mmHg 65%
18:00 +6°C° 0 mm 1 m/s 746 mmHg 70%
19:00 +5°C° 0 mm 1 m/s 746 mmHg 75%
20:00 +5°C° 0 mm 1 m/s 746 mmHg 77%
21:00 +3°C° 0 mm 2 m/s 746 mmHg 80%
22:00 +2°C° 0 mm 2 m/s 746 mmHg 82%
23:00 +2°C° 0 mm 2 m/s 745 mmHg 83%
Arată mai mult

Formular de consimțământ

Meteoprog și furnizorii noștri de servicii pot stoca și accesa date personale, precum cookies, identificatori de dispozitiv sau alte tehnologii similare pe dispozitivul dumneavoastră și procesa astfel de date pentru a personaliza conținutul și reclamele, dar și pentru a oferi caracteristici de social media și pentru a analiza traficul.

  • Stocarea și/sau accesarea informațiilor pe dispozitivul dumneavoastră

    Cookies, identificatori de dispozitiv sau alte informații pot fi stocate sau accesate pe dispozitiv în scopurile indicate mai sus.

  • Reclame și conținut personalizat, evaluarea reclamelor și a conținutului, informații despre audiențe și dezvoltarea produselor

    Reclamele și conținutul pot fi personalizate pe baza unui profil. Pot fi adăugate date suplimentare pentru a personaliza mai bine reclamele și conținutul. Performanța reclamelor și conținutului poate fi măsurată. Pot fi obținute informații despre utilizatorii care au văzut reclamele și conținutul. Aceste date pot fi utilizate pentru a dezvolta sau îmbunătăți experiența utilizatorilor, sistemele și software-ul.

Dând clic pe ‘Sunt de acord’, permiteți utilizarea cookie-urilor menționate, a identificatorilor de dispozitiv, balizelor web sau altor tehnologii similare. Setările pot fi modificate din browser-ul dispozitivului dumneavoastră.

În anumite scopuri, interesele legitime pot prima asupra consimțământului. Puteți citi mai multe informații în acest sens în Politica privind Confidențialitatea Datelor și Cookie.